Probability
0 1 2 2 1 0 0 0 1 2 2 3 2 1 0 0 0 0 0 0 0 0 0 0 1 0 0 0 0 0 0 0 0 0 0 0 0 0 0 0 0 0 0
0 1 2 3 1 0 0 0 0 1 1 2 1 0 0 0 0 0 0 0 0 0 0 0 1 0 0 0 0 0 0 0 0 0 0 0 0 0 0 0 0 0 0
0 1 2 3 2 1 0 0 0 0 0 0 0 0 0 0 0 0 0 0 0 0 0 0 0 0 0 0 0 0 0 0 0 0 0 0 0 0 0 0 0 0 0
0 1 2 3 2 1 0 0 0 0 0 0 0 0 0 0 0 0 0 0 0 0 0 0 0 0 0 0 0 0 0 0 0 0 0 0 0 0 0 0 0 0 0
0 1 2 3 2 1 0 0 0 0 0 0 0 0 0 0 0 0 0 0 0 0 0 0 0 0 0 0 0 0 0 0 0 0 0 0 0 0 0 1 1 0 0
0 1 2 3 3 1 0 0 0 0 0 0 0 0 0 0 0 0 0 0 0 0 0 0 0 0 0 0 0 0 0 0 0 0 0 0 0 0 0 1 1 0 0
0 0 1 3 3 2 1 1 1 1 1 0 0 0 0 0 0 0 0 0 0 0 0 0 0 0 0 0 0 0 0 0 0 0 0 0 0 0 0 0 0 0 0
0 0 1 2 3 2 2 2 2 2 2 1 0 0 0 0 0 0 0 0 0 0 0 0 0 0 0 0 0 0 0 0 0 0 0 0 0 0 0 0 0 0 0
0 0 1 2 3 2 1 1 2 3 3 2 1 0 0 0 0 0 0 0 0 0 0 0 0 0 0 0 0 0 0 0 0 0 0 0 0 0 0 0 0 0 0
0 0 1 2 3 3 2 1 1 1 2 2 1 0 0 0 0 0 0 0 0 0 0 0 0 0 0 0 0 0 0 0 0 0 0 0 0 0 0 1 1 1 1
0 0 0 1 3 3 3 2 1 1 1 2 1 0 0 0 0 0 0 0 0 0 0 0 0 0 0 0 0 0 0 0 0 0 0 0 0 0 1 2 3 3 3
0 0 0 1 2 3 3 3 3 2 2 1 1 0 0 0 0 0 0 0 0 0 0 0 0 0 0 0 0 0 0 0 0 0 0 1 1 1 2 3 4 3 3
0 0 0 0 1 3 3 3 3 3 2 1 0 0 0 0 0 0 0 0 0 0 0 0 0 0 0 0 0 0 0 0 0 0 0 1 2 3 3 3 3 2 1
0 0 0 0 1 2 3 3 3 3 3 2 0 0 0 0 0 0 0 0 0 0 0 0 0 0 0 0 0 0 0 0 0 0 0 1 2 3 3 2 1 1 0
0 0 0 0 0 1 3 3 3 3 3 2 0 0 0 0 0 0 0 0 0 0 0 0 0 0 0 0 0 0 0 0 0 0 0 0 1 1 2 1 0 0 0
0 0 0 0 0 1 2 3 3 3 3 2 1 0 0 0 0 0 0 0 0 0 0 0 0 0 0 0 0 0 0 0 0 0 0 0 0 0 0 0 0 0 0
0 0 0 0 0 1 2 3 3 3 3 2 1 0 0 0 0 0 0 0 0 0 0 0 0 0 0 0 0 0 0 0 0 0 0 0 0 0 0 0 0 0 0
0 0 0 0 0 1 2 3 3 3 2 1 0 0 0 0 0 0 0 0 0 0 0 0 0 0 0 0 0 0 0 0 0 0 0 0 0 0 0 0 0 0 0
0 0 0 0 0 1 2 3 3 3 1 0 0 0 0 0 0 0 0 0 0 0 0 0 0 0 0 0 0 0 0 0 0 0 0 0 0 0 0 0 0 0 0
0 0 0 0 0 0 1 3 3 2 1 0 0 0 0 0 0 0 0 0 0 0 0 0 0 0 0 0 0 0 0 0 0 0 0 0 0 0 0 0 0 0 0
0 0 0 1 1 1 1 2 3 2 1 0 0 0 0 0 0 0 0 0 0 0 0 0 0 0 0 0 0 0 0 0 0 0 0 0 0 0 0 0 0 0 0
0 0 0 1 2 2 1 1 2 1 0 0 0 0 0 0 0 0 0 0 0 0 0 0 0 0 0 0 0 0 0 0 0 0 0 0 0 0 0 0 0 0 0
0 0 0 0 1 2 1 1 1 1 0 1 0 0 0 0 0 0 0 0 0 0 0 0 0 0 0 0 0 0 0 0 0 0 0 0 0 0 0 0 0 0 0
0 0 0 0 1 2 2 1 0 0 0 0 0 0 0 0 0 0 0 0 0 0 0 0 0 0 0 0 0 0 0 0 0 0 0 0 0 0 0 0 0 0 0
0 0 0 0 1 2 2 1 0 0 0 0 0 0 0 0 0 0 0 0 0 0 0 0 0 0 0 0 0 0 0 0 0 0 0 0 0 0 0 0 0 0 0
0 0 0 0 0 1 1 0 0 0 0 0 0 0 0 0 0 0 0 0 0 0 0 0 0 0 0 0 0 0 0 0 0 0 0 0 0 0 0 0 0 0 0
Wind_Speed
2 2 4 4 5 5 6 6 7 7 7 7 7 7 7 7 7 7 7 7 7 7 8 8 9 9 9 10 9 9 10 10 10 10 10 10 10 10 10 10 9 6 11
4 3 4 5 5 6 6 6 7 6 6 6 6 7 7 7 6 7 7 7 7 7 8 8 8 9 9 9 9 9 9 10 10 10 10 8 8 9 10 10 9 7 11
4 4 4 5 6 6 6 6 6 6 6 6 6 6 6 6 6 6 6 6 7 7 7 8 8 8 8 8 8 8 9 9 10 10 9 5 5 9 10 10 10 10 10
4 4 4 5 6 6 6 6 6 6 6 6 6 6 6 6 5 5 5 6 6 7 7 7 8 8 8 8 9 8 8 9 10 9 5 4 4 8 9 9 9 9 9
4 3 3 6 6 6 6 6 6 6 6 5 5 5 5 5 5 4 5 5 5 6 6 6 7 7 7 8 8 9 9 9 10 7 4 4 3 7 9 9 9 9 8
4 3 3 5 6 6 6 6 6 5 5 5 5 4 5 5 5 5 5 5 5 5 6 6 6 6 7 7 8 8 9 10 8 4 3 3 3 6 8 9 9 9 8
4 3 3 4 5 5 5 5 5 5 5 4 4 4 4 5 5 5 5 6 6 6 6 6 6 6 7 7 8 9 9 9 5 4 3 3 3 7 7 8 8 7 7
4 3 3 4 4 4 5 4 4 4 4 4 4 4 4 5 5 5 5 5 5 5 6 6 6 6 6 7 8 8 8 7 5 3 2 2 4 6 6 7 7 7 7
3 3 2 2 2 3 3 3 4 4 4 4 3 3 4 4 5 5 5 5 5 5 6 6 6 6 6 7 7 8 8 7 4 2 2 2 4 5 6 6 6 6 6
2 2 2 2 2 1 2 3 4 3 3 3 3 4 4 5 5 5 4 4 4 5 5 5 6 6 6 7 8 8 8 6 3 2 1 2 4 4 6 6 5 5 6
1 1 2 2 2 1 2 2 3 3 3 2 3 4 4 2 2 2 3 4 4 4 5 5 6 6 6 6 7 7 6 3 3 2 1 2 3 4 5 5 5 5 5
4 2 2 2 2 2 2 2 1 1 1 1 2 2 2 2 1 2 3 3 3 4 4 5 5 5 5 3 4 5 2 2 2 2 2 3 2 3 4 4 4 4 4
4 3 2 3 2 2 2 1 1 1 1 1 1 1 1 1 1 1 1 1 2 3 2 3 3 2 2 2 2 2 2 2 1 1 2 3 2 2 3 3 3 3 3
4 4 3 3 3 3 2 2 2 1 1 1 1 1 1 1 1 1 1 1 1 1 1 1 1 2 2 2 2 2 2 2 1 1 2 4 3 2 2 2 2 2 2
5 5 4 4 4 3 3 2 2 2 2 1 1 1 1 1 1 1 1 1 1 1 1 1 1 1 1 2 2 2 2 1 1 2 2 4 4 3 3 3 3 3 2
6 6 5 5 4 4 3 3 2 2 2 2 1 2 2 2 2 2 1 1 1 1 1 1 1 1 1 1 1 2 1 1 1 1 1 3 5 4 3 3 3 3 3
7 6 6 6 5 4 4 4 2 2 2 2 2 2 2 2 2 2 2 1 1 1 1 1 1 1 1 1 1 1 1 1 1 1 1 1 2 4 4 4 4 4 3
5 6 6 5 5 5 4 3 2 2 2 2 2 2 2 2 2 2 2 2 2 2 2 2 1 1 1 1 1 0 0 0 0 0 1 1 1 1 3 4 4 5 4
5 5 6 5 6 5 4 3 2 2 2 2 2 2 2 2 2 2 2 2 2 2 2 2 1 1 1 1 1 0 0 0 0 1 1 1 1 1 1 3 4 5 5
5 5 5 5 5 4 3 2 2 2 2 2 2 2 2 2 3 2 2 2 2 2 2 2 2 1 1 2 1 1 1 1 0 0 1 0 0 0 1 1 1 3 5
4 5 6 6 5 4 3 3 3 3 2 2 2 3 3 2 3 3 2 2 3 3 3 3 2 2 1 2 1 1 1 1 1 1 0 0 0 1 0 1 1 1 2
5 6 6 6 6 6 4 3 3 2 2 2 2 2 3 3 3 3 3 3 3 3 3 3 3 2 1 1 2 1 1 2 1 1 0 1 1 0 0 1 1 1 1
6 6 6 6 6 6 5 2 2 1 1 1 2 2 3 3 3 3 4 3 3 3 3 4 4 4 3 2 2 2 2 2 2 1 1 1 1 1 1 1 1 1 2
6 5 5 6 6 5 5 5 5 4 4 4 3 2 2 3 3 3 4 4 3 3 3 4 4 3 4 3 2 1 1 2 2 2 2 1 1 1 2 2 1 2 2
5 4 4 5 5 5 6 6 5 4 3 2 2 2 2 2 3 3 4 3 3 3 3 3 3 3 3 3 3 2 2 1 2 2 3 2 2 2 2 2 2 2 2
2 3 3 4 4 5 6 5 6 5 4 3 3 3 2 2 2 3 3 3 3 3 3 3 4 4 4 3 3 2 3 3 3 3 3 3 3 2 2 2 2 3 2
Wind_Direction
196 204 181 153 136 123 112 103 99 93 90 92 97 95 92 92 89 85 82 81 81 83 83 82 80 81 79 79 80 79 76 73 69 66 68 70 72 74 75 71 68 63 72
165 176 172 155 140 128 115 106 102 98 95 95 99 98 93 89 88 87 83 80 79 83 84 83 80 79 79 79 80 81 79 77 71 64 60 59 68 75 76 74 72 73 73
142 156 163 149 136 126 118 109 104 103 100 100 106 104 100 95 91 88 85 82 81 82 85 82 80 80 80 79 81 83 81 78 73 65 56 42 53 74 77 75 72 73 71
140 145 154 139 134 127 122 117 111 108 104 101 106 106 104 101 95 90 85 84 84 83 83 84 83 81 83 84 82 83 83 79 74 66 50 38 39 70 72 71 71 71 71
130 132 148 136 134 128 124 121 116 109 106 103 107 109 110 106 98 93 88 83 82 84 83 84 85 82 82 84 83 83 83 80 72 63 50 37 33 66 69 69 71 70 69
118 111 131 131 132 127 124 122 119 113 109 106 107 108 99 93 88 89 84 78 79 82 81 83 83 80 83 83 83 84 84 81 71 60 53 42 41 69 73 70 69 69 67
123 108 118 120 132 129 125 125 123 118 113 106 102 108 103 100 93 86 82 75 73 75 80 80 79 78 83 85 84 85 87 78 70 60 51 44 54 72 75 71 68 66 65
128 114 116 119 116 123 124 123 120 117 112 107 100 98 104 102 97 89 84 79 75 73 76 78 77 75 82 87 87 86 83 77 69 62 50 43 60 74 76 72 67 65 65
114 109 108 115 115 107 106 116 117 111 106 99 92 91 93 91 87 81 81 81 78 75 73 77 76 77 82 85 87 86 80 70 58 53 53 46 59 76 79 74 66 63 64
113 116 118 106 104 103 107 97 94 94 90 88 81 80 82 81 79 76 73 76 76 74 74 77 78 80 78 81 84 81 75 64 49 42 34 48 63 77 78 74 70 67 65
145 149 150 143 132 125 119 101 91 85 84 82 76 78 77 74 75 72 72 73 75 75 74 78 80 78 71 76 81 77 69 58 51 38 31 62 79 79 75 72 74 69 64
194 196 184 172 165 155 143 121 110 94 89 87 90 91 84 76 70 68 66 67 65 69 72 73 74 74 69 69 74 70 61 59 56 29 39 59 81 84 76 71 71 66 60
199 194 196 186 181 171 160 143 137 121 111 101 103 102 99 86 70 63 68 51 53 62 66 63 60 63 70 82 81 73 68 58 42 20 24 39 63 79 77 69 68 60 53
201 204 202 195 186 186 173 169 161 151 156 156 154 141 130 119 104 103 98 84 74 74 82 77 77 82 82 90 96 86 71 59 38 23 18 31 41 51 59 52 53 59 52
210 206 203 200 194 191 180 181 170 176 180 183 175 175 162 157 165 159 141 126 106 101 108 104 87 113 112 103 95 90 85 68 45 37 8 20 29 30 34 32 26 19 27
218 211 202 202 198 193 189 188 188 185 185 177 179 190 184 175 176 171 160 145 139 129 131 136 136 137 135 122 97 91 97 89 53 29 13 9 13 10 8 3 360 5 8
221 211 205 201 196 195 195 194 184 186 181 182 189 189 186 180 178 171 164 167 163 144 136 121 107 100 115 98 79 75 88 89 80 25 2 7 353 357 359 354 346 343 342
219 212 207 201 195 197 197 193 184 181 182 191 192 188 187 182 171 165 168 177 164 149 145 138 137 109 123 114 101 77 74 70 57 356 357 3 352 342 340 345 343 342 337
218 210 204 200 195 196 195 190 179 179 190 188 187 193 192 184 174 171 179 177 161 153 154 155 141 148 153 125 122 75 6 360 340 351 356 349 336 342 330 339 345 343 331
213 206 201 200 199 189 181 173 168 177 198 191 190 196 189 187 177 174 174 171 165 160 161 157 152 144 153 146 104 40 341 316 333 276 279 334 342 330 315 321 334 334 332
203 202 202 199 197 182 179 182 188 203 210 209 202 197 192 186 179 179 179 174 172 172 176 170 154 149 147 127 101 20 341 327 276 258 238 218 298 308 319 320 331 325 323
214 209 208 205 198 193 192 190 193 187 203 209 206 201 199 190 186 187 184 184 183 177 173 173 165 155 164 159 144 128 329 326 324 309 260 214 230 252 284 307 312 306 299
220 216 213 208 201 195 184 160 130 128 131 177 205 214 215 201 191 191 191 186 184 182 189 191 183 172 180 190 178 159 169 230 296 308 275 249 241 237 257 277 284 293 291
226 220 212 203 198 191 179 176 176 186 200 207 200 211 212 200 193 191 187 187 188 192 200 200 195 188 174 191 201 209 191 166 181 283 300 288 274 250 247 254 266 275 282
222 217 212 199 195 188 183 185 186 196 207 197 177 192 202 203 199 194 187 186 187 196 204 198 191 192 191 195 188 178 185 191 187 194 260 287 302 267 249 244 247 259 274
219 212 204 192 199 189 186 188 192 197 192 185 191 198 211 213 204 199 191 193 193 192 197 203 198 193 199 201 203 196 185 185 192 195 227 256 269 269 262 244 242 247 256